TimePDT,TemperatureF,Dew PointF,Humidity,Sea Level PressureIn,VisibilityMPH,Wind Direction,Wind SpeedMPH,Gust SpeedMPH,PrecipitationIn,Events,Conditions,WindDirDegrees,DateUTC
12:53 AM,72.0,51.1,48,29.88,10.0,NNW,6.9,-,N/A,,Clear,330,2013-09-13 07:53:00
1:53 AM,69.1,54.0,58,29.89,10.0,NW,9.2,-,N/A,,Clear,320,2013-09-13 08:53:00
2:53 AM,60.1,53.1,78,29.89,10.0,SSE,3.5,-,N/A,,Mostly Cloudy,160,2013-09-13 09:53:00
3:53 AM,62.1,52.0,70,29.89,10.0,Calm,Calm,-,N/A,,Mostly Cloudy,0,2013-09-13 10:53:00
4:53 AM,57.9,50.0,75,29.89,10.0,Calm,Calm,-,N/A,,Mostly Cloudy,0,2013-09-13 11:53:00
5:53 AM,54.0,50.0,86,29.91,10.0,Calm,Calm,-,N/A,,Scattered Clouds,0,2013-09-13 12:53:00
6:53 AM,54.0,51.1,90,29.92,10.0,Calm,Calm,-,N/A,,Clear,0,2013-09-13 13:53:00
7:53 AM,57.9,51.1,78,29.93,10.0,Calm,Calm,-,N/A,,Partly Cloudy,0,2013-09-13 14:53:00
8:53 AM,66.9,53.1,61,29.91,10.0,Calm,Calm,-,N/A,,Clear,0,2013-09-13 15:53:00
9:53 AM,75.9,46.9,36,29.89,10.0,NNW,9.2,-,N/A,,Clear,340,2013-09-13 16:53:00
10:53 AM,79.0,44.1,29,29.87,10.0,NNW,6.9,-,N/A,,Clear,330,2013-09-13 17:53:00
11:53 AM,82.9,41.0,23,29.85,10.0,Variable,3.5,-,N/A,,Clear,0,2013-09-13 18:53:00
12:53 PM,84.0,39.9,21,29.83,10.0,Variable,3.5,-,N/A,,Clear,0,2013-09-13 19:53:00
1:53 PM,86.0,39.9,20,29.81,10.0,Variable,3.5,-,N/A,,Clear,0,2013-09-13 20:53:00
2:53 PM,88.0,37.0,16,29.80,10.0,NW,9.2,-,N/A,,Clear,320,2013-09-13 21:53:00
3:53 PM,88.0,39.0,18,29.78,10.0,Variable,4.6,-,N/A,,Clear,0,2013-09-13 22:53:00
4:53 PM,88.0,39.9,18,29.77,10.0,NNW,15.0,-,N/A,,Partly Cloudy,330,2013-09-13 23:53:00
5:53 PM,86.0,39.0,19,29.77,10.0,NNW,15.0,-,N/A,,Clear,330,2013-09-14 00:53:00
6:53 PM,82.0,43.0,25,29.78,10.0,NNW,11.5,-,N/A,,Clear,330,2013-09-14 01:53:00
7:53 PM,75.9,48.0,37,29.80,10.0,NNW,10.4,-,N/A,,Clear,330,2013-09-14 02:53:00
8:53 PM,71.1,50.0,47,29.81,10.0,NNW,5.8,-,N/A,,Clear,340,2013-09-14 03:53:00
9:53 PM,66.0,45.0,47,29.81,10.0,NNW,4.6,-,N/A,,Clear,340,2013-09-14 04:53:00
10:53 PM,66.0,37.9,36,29.81,10.0,Calm,Calm,-,N/A,,Clear,0,2013-09-14 05:53:00
11:53 PM,59.0,44.1,58,29.83,10.0,WSW,3.5,-,N/A,,Clear,250,2013-09-14 06:53:00